| time (UTC) | temp F | wind direction | speed MPH | gust MPH | rain 1hr in | rain 24hr in | rain mn in | humidity % | barometer mb |
| 20260503200705 | 63 | 154 | 7.0 | 13.0 | 0.00 | 0.00 | 0.00 | 65 | 1014.2 |
| 20260503200206 | 63 | 98 | 7.0 | 13.0 | 0.00 | 0.00 | 0.00 | 64 | 1014.2 |
| 20260503200016 | 62 | 96 | 7.0 | 13.0 | 0.00 | 0.00 | 0.00 | 64 | 1014.6 |
| 20260503195705 | 63 | 132 | 6.0 | 12.0 | 0.00 | 0.00 | 0.00 | 64 | 1014.2 |
| 20260503195206 | 63 | 94 | 6.0 | 13.0 | 0.00 | 0.00 | 0.00 | 64 | 1014.1 |
| 20260503194705 | 63 | 128 | 6.0 | 13.0 | 0.00 | 0.00 | 0.00 | 64 | 1014.1 |
| 20260503194512 | 62 | 122 | 5.0 | 11.0 | 0.00 | 0.00 | 0.00 | 63 | 1014.5 |
| 20260503194206 | 63 | 85 | 6.0 | 13.0 | 0.00 | 0.00 | 0.00 | 63 | 1014.1 |
| 20260503193011 | 62 | 129 | 6.0 | 17.0 | 0.00 | 0.00 | 0.00 | 63 | 1014.3 |
| 20260503192206 | 63 | 84 | 6.0 | 15.0 | 0.00 | 0.00 | 0.00 | 63 | 1013.9 |
| 20260503191705 | 62 | 65 | 5.0 | 13.0 | 0.00 | 0.00 | 0.00 | 63 | 1013.9 |
| 20260503191510 | 62 | 107 | 5.0 | 11.0 | 0.00 | 0.00 | 0.00 | 63 | 1014.3 |
| 20260503191205 | 62 | 111 | 5.0 | 14.0 | 0.00 | 0.00 | 0.00 | 64 | 1013.9 |
| 20260503190705 | 62 | 76 | 5.0 | 18.0 | 0.00 | 0.00 | 0.00 | 64 | 1013.9 |
| 20260503190206 | 63 | 130 | 6.0 | 18.0 | 0.00 | 0.00 | 0.00 | 64 | 1013.8 |
| 20260503190012 | 62 | 119 | 4.0 | 14.0 | 0.00 | 0.00 | 0.00 | 64 | 1014.1 |
| 20260503185706 | 63 | 95 | 7.0 | 18.0 | 0.00 | 0.00 | 0.00 | 65 | 1013.8 |
| 20260503185206 | 63 | 115 | 6.0 | 14.0 | 0.00 | 0.00 | 0.00 | 65 | 1013.8 |
| 20260503184705 | 63 | 114 | 6.0 | 13.0 | 0.00 | 0.00 | 0.00 | 65 | 1013.8 |
| 20260503184510 | 62 | 94 | 5.0 | 12.0 | 0.00 | 0.00 | 0.00 | 65 | 1014.2 |
| 20260503184206 | 63 | 86 | 7.0 | 13.0 | 0.00 | 0.00 | 0.00 | 65 | 1013.8 |
| 20260503183706 | 63 | 88 | 7.0 | 14.0 | 0.00 | 0.00 | 0.00 | 65 | 1013.8 |
| 20260503183206 | 63 | 69 | 7.0 | 14.0 | 0.00 | 0.00 | 0.00 | 65 | 1013.6 |
| 20260503183008 | 63 | 55 | 6.0 | 14.0 | 0.00 | 0.00 | 0.00 | 65 | 1014.0 |
| 20260503181705 | 63 | 98 | 9.0 | 17.0 | 0.00 | 0.00 | 0.00 | 65 | 1013.6 |
| 20260503181507 | 63 | 101 | 10.0 | 17.0 | 0.00 | 0.00 | 0.00 | 65 | 1014.0 |
| 20260503180705 | 64 | 84 | 7.0 | 18.0 | 0.00 | 0.00 | 0.00 | 65 | 1013.7 |
| 20260503180205 | 64 | 125 | 9.0 | 18.0 | 0.00 | 0.00 | 0.00 | 64 | 1013.8 |
| 20260503180006 | 63 | 100 | 9.0 | 18.0 | 0.00 | 0.00 | 0.00 | 64 | 1014.2 |
| 20260503175206 | 64 | 92 | 7.0 | 19.0 | 0.00 | 0.00 | 0.00 | 64 | 1013.9 |
| 20260503174705 | 64 | 150 | 7.0 | 19.0 | 0.00 | 0.00 | 0.00 | 64 | 1013.9 |
| 20260503174504 | 63 | 122 | 6.0 | 19.0 | 0.00 | 0.00 | 0.00 | 64 | 1014.3 |
| 20260503174206 | 64 | 128 | 8.0 | 15.0 | 0.00 | 0.00 | 0.00 | 63 | 1013.9 |
| 20260503173705 | 64 | 78 | 8.0 | 24.0 | 0.00 | 0.00 | 0.00 | 63 | 1013.9 |
| 20260503173206 | 64 | 77 | 8.0 | 24.0 | 0.00 | 0.00 | 0.00 | 63 | 1013.9 |
| 20260503173004 | 64 | 69 | 7.0 | 24.0 | 0.00 | 0.00 | 0.00 | 64 | 1014.3 |
| 20260503172705 | 64 | 123 | 8.0 | 22.0 | 0.00 | 0.00 | 0.00 | 63 | 1013.9 |
| 20260503172206 | 64 | 77 | 8.0 | 22.0 | 0.00 | 0.00 | 0.00 | 63 | 1013.8 |
| 20260503171705 | 64 | 64 | 8.0 | 17.0 | 0.00 | 0.00 | 0.00 | 63 | 1013.9 |
| 20260503171503 | 64 | 69 | 8.0 | 20.0 | 0.00 | 0.00 | 0.00 | 63 | 1014.2 |
| 20260503171206 | 64 | 101 | 8.0 | 17.0 | 0.00 | 0.00 | 0.00 | 63 | 1013.8 |
| 20260503170705 | 64 | 151 | 8.0 | 17.0 | 0.00 | 0.00 | 0.00 | 63 | 1014.0 |
| 20260503170206 | 64 | 113 | 9.0 | 17.0 | 0.00 | 0.00 | 0.00 | 63 | 1014.1 |
| 20260503160205 | 65 | 77 | 10.0 | 20.0 | 0.00 | 0.00 | 0.00 | 62 | 1014.1 |
| 20260503150205 | 66 | 69 | 9.0 | 18.0 | 0.00 | 0.00 | 0.00 | 59 | 1014.5 |
| 20260503140205 | 67 | 117 | 11.0 | 22.0 | 0.00 | 0.00 | 0.00 | 59 | 1014.9 |
| 20260503131205 | 67 | 103 | 10.0 | 18.0 | 0.00 | 0.00 | 0.00 | 57 | 1015.3 |
| 20260503130705 | 67 | 108 | 9.0 | 22.0 | 0.00 | 0.00 | 0.00 | 56 | 1015.3 |
| 20260503130205 | 67 | 112 | 8.0 | 22.0 | 0.00 | 0.00 | 0.00 | 57 | 1015.3 |
| 20260503120205 | 67 | 132 | 9.0 | 17.0 | 0.00 | 0.00 | 0.00 | 58 | 1015.9 |
| 20260503110705 | 66 | 107 | 11.0 | 24.0 | 0.00 | 0.00 | 0.00 | 58 | 1016.2 |
| 20260503110205 | 66 | 117 | 11.0 | 24.0 | 0.00 | 0.00 | 0.00 | 57 | 1016.2 |
| 20260503090205 | 66 | 105 | 9.0 | 17.0 | 0.00 | 0.00 | 0.00 | 59 | 1015.7 |
| 20260503081543 | 64 | 116 | 4.0 | 14.0 | 0.00 | 0.00 | 0.00 | 61 | 1016.1 |
| 20260503081205 | 65 | 105 | 6.0 | 13.0 | 0.00 | 0.00 | 0.00 | 61 | 1015.8 |
| 20260503080705 | 65 | 62 | 6.0 | 16.0 | 0.00 | 0.00 | 0.00 | 61 | 1015.8 |
| 20260503080205 | 64 | 98 | 7.0 | 16.0 | 0.00 | 0.00 | 0.00 | 61 | 1015.7 |
| 20260503072706 | 64 | 111 | 8.0 | 15.0 | 0.00 | 0.00 | 0.00 | 61 | 1015.7 |
| 20260503072205 | 64 | 71 | 8.0 | 15.0 | 0.00 | 0.00 | 0.00 | 61 | 1015.7 |
| 20260503071705 | 64 | 118 | 7.0 | 14.0 | 0.00 | 0.00 | 0.00 | 61 | 1015.6 |
| 20260503071533 | 63 | 81 | 7.0 | 14.0 | 0.00 | 0.00 | 0.00 | 61 | 1015.9 |
| 20260503071206 | 64 | 86 | 7.0 | 14.0 | 0.00 | 0.00 | 0.00 | 61 | 1015.5 |
| 20260503070206 | 64 | 122 | 7.0 | 17.0 | 0.00 | 0.00 | 0.00 | 61 | 1015.6 |
| 20260503060205 | 63 | 116 | 8.0 | 17.0 | 0.00 | 0.00 | 0.00 | 62 | 1015.1 |
| 20260503054705 | 63 | 86 | 8.0 | 16.0 | 0.00 | 0.00 | 0.00 | 63 | 1015.1 |
| 20260503054512 | 62 | 99 | 7.0 | 16.0 | 0.00 | 0.00 | 0.00 | 63 | 1015.4 |
| 20260503054205 | 63 | 119 | 8.0 | 12.0 | 0.00 | 0.00 | 0.00 | 63 | 1015.1 |
| 20260503053205 | 63 | 104 | 6.0 | 11.0 | 0.00 | 0.00 | 0.00 | 63 | 1014.9 |
| 20260503053008 | 62 | 113 | 6.0 | 12.0 | 0.00 | 0.00 | 0.00 | 63 | 1015.3 |
| 20260503052705 | 62 | 74 | 6.0 | 11.0 | 0.00 | 0.00 | 0.00 | 63 | 1015.0 |
| 20260503051705 | 62 | 90 | 5.0 | 15.0 | 0.00 | 0.00 | 0.00 | 63 | 1014.9 |
| 20260503051503 | 62 | 84 | 6.0 | 10.0 | 0.00 | 0.00 | 0.00 | 63 | 1015.3 |
| 20260503051205 | 62 | 165 | 5.0 | 15.0 | 0.00 | 0.00 | 0.00 | 63 | 1014.9 |
| 20260503050705 | 62 | 125 | 7.0 | 13.0 | 0.00 | 0.00 | 0.00 | 64 | 1014.9 |
| 20260503050002 | 61 | 108 | 6.0 | 13.0 | 0.00 | 0.00 | 0.00 | 65 | 1015.2 |
| 20260503045705 | 62 | 86 | 5.0 | 13.0 | 0.00 | 0.00 | 0.00 | 65 | 1014.8 |
| 20260503045206 | 62 | 80 | 6.0 | 13.0 | 0.00 | 0.00 | 0.00 | 66 | 1014.8 |
| 20260503044705 | 62 | 67 | 5.0 | 11.0 | 0.00 | 0.00 | 0.00 | 66 | 1014.8 |
| 20260503044559 | 61 | 105 | 6.0 | 13.0 | 0.00 | 0.00 | 0.00 | 66 | 1015.1 |
| 20260503044206 | 62 | 80 | 5.0 | 11.0 | 0.00 | 0.00 | 0.00 | 66 | 1014.7 |
| 20260503043705 | 62 | 43 | 6.0 | 18.0 | 0.00 | 0.00 | 0.00 | 66 | 1014.8 |
| 20260503043205 | 62 | 159 | 6.0 | 18.0 | 0.00 | 0.00 | 0.00 | 66 | 1014.7 |
| 20260503043101 | 61 | 92 | 7.0 | 11.0 | 0.00 | 0.00 | 0.00 | 66 | 1015.1 |
| 20260503042705 | 62 | 74 | 6.0 | 18.0 | 0.00 | 0.00 | 0.00 | 66 | 1014.8 |
| 20260503041705 | 62 | 88 | 5.0 | 14.0 | 0.00 | 0.00 | 0.00 | 65 | 1014.9 |
| 20260503041556 | 62 | 106 | 4.0 | 9.0 | 0.00 | 0.00 | 0.00 | 65 | 1015.2 |
| 20260503041205 | 62 | 99 | 6.0 | 14.0 | 0.00 | 0.00 | 0.00 | 65 | 1014.9 |
| 20260503040705 | 62 | 90 | 6.0 | 12.0 | 0.00 | 0.00 | 0.00 | 65 | 1014.9 |
| 20260503040205 | 62 | 156 | 6.0 | 18.0 | 0.00 | 0.00 | 0.00 | 64 | 1015.0 |
| 20260503040054 | 62 | 69 | 4.0 | 11.0 | 0.00 | 0.00 | 0.00 | 64 | 1015.4 |
| 20260503035705 | 63 | 65 | 7.0 | 19.0 | 0.00 | 0.00 | 0.00 | 64 | 1015.1 |
| 20260503034705 | 63 | 143 | 6.0 | 19.0 | 0.00 | 0.00 | 0.00 | 64 | 1015.1 |
| 20260503034554 | 62 | 94 | 3.0 | 19.0 | 0.00 | 0.00 | 0.00 | 64 | 1015.5 |
| 20260503034205 | 63 | 125 | 7.0 | 15.0 | 0.00 | 0.00 | 0.00 | 64 | 1015.1 |
| 20260503033705 | 63 | 76 | 5.0 | 12.0 | 0.00 | 0.00 | 0.00 | 65 | 1015.1 |
| 20260503033205 | 63 | 132 | 5.0 | 10.0 | 0.00 | 0.00 | 0.00 | 65 | 1015.1 |
| 20260503033052 | 62 | 115 | 4.0 | 11.0 | 0.00 | 0.00 | 0.00 | 65 | 1015.4 |
| 20260503032205 | 63 | 104 | 4.0 | 10.0 | 0.00 | 0.00 | 0.00 | 65 | 1015.2 |
| 20260503031725 | 63 | 85 | 3.0 | 13.0 | 0.00 | 0.00 | 0.00 | 65 | 1015.3 |
| 20260503031601 | 62 | 60 | 3.0 | 7.0 | 0.00 | 0.00 | 0.00 | 65 | 1015.6 |
| 20260503031205 | 63 | 153 | 4.0 | 13.0 | 0.00 | 0.00 | 0.00 | 65 | 1015.2 |
| 20260503030706 | 63 | 121 | 4.0 | 13.0 | 0.00 | 0.00 | 0.00 | 65 | 1015.4 |
| 20260503030206 | 63 | 104 | 3.0 | 8.0 | 0.00 | 0.00 | 0.00 | 65 | 1015.3 |
| 20260503030051 | 62 | 124 | 2.0 | 8.0 | 0.00 | 0.00 | 0.00 | 64 | 1015.6 |
| 20260503025705 | 63 | 82 | 3.0 | 11.0 | 0.00 | 0.00 | 0.00 | 64 | 1015.3 |
| 20260503025207 | 63 | 82 | 4.0 | 11.0 | 0.00 | 0.00 | 0.00 | 65 | 1015.4 |
| 20260503024705 | 63 | 107 | 3.0 | 11.0 | 0.00 | 0.00 | 0.00 | 64 | 1015.5 |
| 20260503024550 | 62 | 92 | 2.0 | 11.0 | 0.00 | 0.00 | 0.00 | 64 | 1015.9 |
| 20260503023205 | 63 | 48 | 5.0 | 16.0 | 0.00 | 0.00 | 0.00 | 64 | 1015.5 |
| 20260503023052 | 62 | 96 | 4.0 | 12.0 | 0.00 | 0.00 | 0.00 | 64 | 1015.8 |
| 20260503022705 | 63 | 98 | 6.0 | 16.0 | 0.00 | 0.00 | 0.00 | 64 | 1015.4 |
| 20260503022206 | 63 | 89 | 4.0 | 16.0 | 0.00 | 0.00 | 0.00 | 64 | 1015.5 |
| 20260503021705 | 63 | 103 | 4.0 | 14.0 | 0.00 | 0.00 | 0.00 | 64 | 1015.5 |
| 20260503021550 | 62 | 159 | 3.0 | 10.0 | 0.00 | 0.00 | 0.00 | 64 | 1015.9 |
| 20260503021205 | 63 | 138 | 6.0 | 14.0 | 0.00 | 0.00 | 0.00 | 64 | 1015.5 |
| 20260503020705 | 63 | 123 | 7.0 | 14.0 | 0.00 | 0.00 | 0.00 | 64 | 1015.5 |
| 20260503020205 | 63 | 138 | 6.0 | 11.0 | 0.00 | 0.00 | 0.00 | 65 | 1015.6 |
| 20260503020057 | 62 | 119 | 6.0 | 13.0 | 0.00 | 0.00 | 0.00 | 65 | 1016.0 |
| 20260503015705 | 63 | 111 | 6.0 | 13.0 | 0.00 | 0.00 | 0.00 | 65 | 1015.6 |
| 20260503014705 | 63 | 111 | 7.0 | 16.0 | 0.00 | 0.00 | 0.00 | 66 | 1015.5 |
| 20260503014553 | 62 | 101 | 6.0 | 14.0 | 0.00 | 0.00 | 0.00 | 66 | 1015.9 |
| 20260503013705 | 63 | 113 | 6.0 | 18.0 | 0.00 | 0.00 | 0.00 | 66 | 1015.4 |
| 20260503013205 | 63 | 153 | 7.0 | 18.0 | 0.00 | 0.00 | 0.00 | 66 | 1015.6 |
| 20260503013046 | 62 | 55 | 5.0 | 18.0 | 0.00 | 0.00 | 0.00 | 66 | 1015.9 |
| 20260503012705 | 63 | 72 | 7.0 | 16.0 | 0.00 | 0.00 | 0.00 | 66 | 1015.6 |
| 20260503011705 | 63 | 94 | 8.0 | 15.0 | 0.00 | 0.00 | 0.00 | 66 | 1015.6 |
| 20260503011557 | 63 | 105 | 7.0 | 16.0 | 0.00 | 0.00 | 0.00 | 66 | 1015.9 |
| 20260503011205 | 63 | 109 | 7.0 | 14.0 | 0.00 | 0.00 | 0.00 | 66 | 1015.6 |
| 20260503010205 | 63 | 123 | 7.0 | 16.0 | 0.00 | 0.00 | 0.00 | 66 | 1015.8 |
| 20260503010043 | 63 | 130 | 5.0 | 16.0 | 0.00 | 0.00 | 0.00 | 66 | 1016.3 |
| 20260503005705 | 63 | 98 | 6.0 | 16.0 | 0.00 | 0.00 | 0.00 | 66 | 1015.9 |
| 20260503005206 | 63 | 115 | 6.0 | 14.0 | 0.00 | 0.00 | 0.00 | 66 | 1015.9 |
| 20260503004705 | 63 | 115 | 6.0 | 14.0 | 0.00 | 0.00 | 0.00 | 66 | 1016.0 |
| 20260503004542 | 62 | 81 | 6.0 | 14.0 | 0.00 | 0.00 | 0.00 | 66 | 1016.3 |
| 20260503004205 | 63 | 79 | 6.0 | 15.0 | 0.00 | 0.00 | 0.00 | 66 | 1016.0 |
| 20260503003705 | 63 | 97 | 7.0 | 15.0 | 0.00 | 0.00 | 0.00 | 66 | 1016.1 |
| 20260503003205 | 63 | 117 | 6.0 | 15.0 | 0.00 | 0.00 | 0.00 | 66 | 1016.2 |
| 20260503003039 | 63 | 95 | 6.0 | 14.0 | 0.00 | 0.00 | 0.00 | 66 | 1016.5 |
| 20260503002705 | 63 | 173 | 5.0 | 15.0 | 0.00 | 0.00 | 0.00 | 66 | 1016.3 |
| 20260503002206 | 63 | 83 | 6.0 | 15.0 | 0.00 | 0.00 | 0.00 | 66 | 1016.3 |
| 20260503001705 | 63 | 89 | 8.0 | 14.0 | 0.00 | 0.00 | 0.00 | 65 | 1016.3 |
| 20260503001538 | 63 | 155 | 7.0 | 14.0 | 0.00 | 0.00 | 0.00 | 65 | 1016.7 |
| 20260503001205 | 63 | 98 | 7.0 | 15.0 | 0.00 | 0.00 | 0.00 | 65 | 1016.3 |
| 20260503000705 | 63 | 88 | 7.0 | 15.0 | 0.00 | 0.00 | 0.00 | 64 | 1016.4 |
| 20260503000205 | 63 | 107 | 8.0 | 15.0 | 0.00 | 0.00 | 0.00 | 65 | 1016.4 |
| 20260503000045 | 62 | 123 | 7.0 | 15.0 | 0.00 | 0.00 | 0.00 | 65 | 1016.9 |
| 20260502235705 | 63 | 81 | 7.0 | 16.0 | 0.00 | 0.00 | 0.00 | 65 | 1016.6 |
| 20260502235206 | 63 | 137 | 5.0 | 16.0 | 0.00 | 0.00 | 0.00 | 66 | 1016.6 |
| 20260502234705 | 63 | 120 | 6.0 | 16.0 | 0.00 | 0.00 | 0.00 | 66 | 1016.7 |
| 20260502234536 | 62 | 69 | 4.0 | 15.0 | 0.00 | 0.00 | 0.00 | 66 | 1017.0 |
| 20260502234206 | 63 | 88 | 7.0 | 12.0 | 0.00 | 0.00 | 0.00 | 66 | 1016.6 |
| 20260502233705 | 63 | 88 | 6.0 | 11.0 | 0.00 | 0.00 | 0.00 | 66 | 1016.6 |
| 20260502233205 | 63 | 78 | 6.0 | 12.0 | 0.00 | 0.00 | 0.00 | 66 | 1016.6 |
| 20260502233034 | 62 | 103 | 5.0 | 11.0 | 0.00 | 0.00 | 0.00 | 66 | 1017.0 |
| 20260502232705 | 63 | 98 | 6.0 | 12.0 | 0.00 | 0.00 | 0.00 | 66 | 1016.6 |
| 20260502232206 | 63 | 89 | 6.0 | 11.0 | 0.00 | 0.00 | 0.00 | 66 | 1016.8 |
| 20260502231705 | 63 | 88 | 5.0 | 11.0 | 0.00 | 0.00 | 0.00 | 66 | 1016.9 |
| 20260502231533 | 63 | 99 | 5.0 | 11.0 | 0.00 | 0.00 | 0.00 | 66 | 1017.2 |
| 20260502230032 | 63 | 92 | 3.0 | 19.0 | 0.00 | 0.00 | 0.00 | 64 | 1017.4 |
| 20260502225206 | 64 | 116 | 9.0 | 18.0 | 0.00 | 0.00 | 0.00 | 64 | 1016.7 |
| 20260502224705 | 64 | 115 | 11.0 | 19.0 | 0.00 | 0.00 | 0.00 | 64 | 1016.8 |
| 20260502224532 | 63 | 125 | 9.0 | 19.0 | 0.00 | 0.00 | 0.00 | 64 | 1017.1 |
| 20260502224206 | 63 | 115 | 10.0 | 19.0 | 0.00 | 0.00 | 0.00 | 64 | 1016.8 |
| 20260502223705 | 63 | 109 | 9.0 | 19.0 | 0.00 | 0.00 | 0.00 | 65 | 1016.9 |
| 20260502223205 | 63 | 119 | 9.0 | 19.0 | 0.00 | 0.00 | 0.00 | 65 | 1017.1 |
| 20260502223029 | 63 | 161 | 10.0 | 19.0 | 0.00 | 0.00 | 0.00 | 65 | 1017.4 |
| 20260502222705 | 63 | 130 | 7.0 | 16.0 | 0.00 | 0.00 | 0.00 | 65 | 1017.3 |
| 20260502222204 | 63 | 138 | 7.0 | 16.0 | 0.00 | 0.00 | 0.00 | 66 | 1017.3 |
| 20260502221705 | 63 | 130 | 6.0 | 16.0 | 0.00 | 0.00 | 0.00 | 66 | 1017.3 |
| 20260502221532 | 63 | 133 | 6.0 | 17.0 | 0.00 | 0.00 | 0.00 | 66 | 1017.7 |
| 20260502221206 | 63 | 153 | 6.0 | 13.0 | 0.00 | 0.00 | 0.00 | 66 | 1017.4 |
| 20260502220206 | 63 | 121 | 6.0 | 15.0 | 0.00 | 0.00 | 0.00 | 66 | 1017.3 |
| 20260502220023 | 63 | 75 | 7.0 | 12.0 | 0.00 | 0.00 | 0.00 | 66 | 1017.6 |
| 20260502215705 | 63 | 111 | 6.0 | 15.0 | 0.00 | 0.00 | 0.00 | 66 | 1017.3 |
| 20260502215206 | 63 | 103 | 7.0 | 15.0 | 0.00 | 0.00 | 0.00 | 66 | 1017.3 |
| 20260502214705 | 63 | 81 | 7.0 | 14.0 | 0.00 | 0.00 | 0.00 | 66 | 1017.3 |
| 20260502214522 | 63 | 111 | 7.0 | 16.0 | 0.00 | 0.00 | 0.00 | 66 | 1017.7 |
| 20260502214205 | 63 | 131 | 7.0 | 15.0 | 0.00 | 0.00 | 0.00 | 66 | 1017.3 |
| 20260502213705 | 63 | 84 | 8.0 | 17.0 | 0.00 | 0.00 | 0.00 | 65 | 1017.4 |
| 20260502213020 | 62 | 112 | 7.0 | 17.0 | 0.00 | 0.00 | 0.00 | 65 | 1017.7 |
| 20260502212705 | 63 | 80 | 8.0 | 13.0 | 0.00 | 0.00 | 0.00 | 65 | 1017.5 |
| 20260502212204 | 62 | 80 | 7.0 | 13.0 | 0.00 | 0.00 | 0.00 | 66 | 1017.5 |
| 20260502211705 | 62 | 90 | 5.0 | 10.0 | 0.00 | 0.00 | 0.00 | 66 | 1017.7 |
| 20260502211519 | 62 | 67 | 8.0 | 12.0 | 0.00 | 0.00 | 0.00 | 67 | 1018.1 |
| 20260502211205 | 63 | 84 | 4.0 | 11.0 | 0.00 | 0.00 | 0.00 | 67 | 1017.8 |
| 20260502210705 | 63 | 85 | 4.0 | 11.0 | 0.00 | 0.00 | 0.00 | 67 | 1017.8 |
| 20260502210225 | 63 | 69 | 4.0 | 13.0 | 0.00 | 0.00 | 0.00 | 67 | 1017.8 |
| 20260502210019 | 62 | 107 | 5.0 | 11.0 | 0.00 | 0.00 | 0.00 | 67 | 1018.1 |
| 20260502204705 | 63 | 88 | 8.0 | 15.0 | 0.00 | 0.00 | 0.00 | 67 | 1017.6 |
| 20260502204519 | 62 | 90 | 8.0 | 15.0 | 0.00 | 0.00 | 0.00 | 67 | 1017.9 |
| 20260502204205 | 63 | 94 | 7.0 | 13.0 | 0.00 | 0.00 | 0.00 | 67 | 1017.7 |
| 20260502203016 | 62 | 105 | 6.0 | 18.0 | 0.00 | 0.00 | 0.00 | 66 | 1018.2 |
| 20260502202705 | 63 | 132 | 7.0 | 13.0 | 0.00 | 0.00 | 0.00 | 66 | 1017.9 |
| 20260502202206 | 63 | 118 | 6.0 | 13.0 | 0.00 | 0.00 | 0.00 | 66 | 1018.0 |
| 20260502201705 | 63 | 99 | 7.0 | 13.0 | 0.00 | 0.00 | 0.00 | 66 | 1018.0 |
| 20260502201516 | 62 | 110 | 5.0 | 13.0 | 0.00 | 0.00 | 0.00 | 66 | 1018.3 |
| 20260502201205 | 63 | 73 | 6.0 | 14.0 | 0.00 | 0.00 | 0.00 | 66 | 1018.0 |